FW3274 Weather Reports


time (UTC)temp
C
wind
direction
speed
KPH
gust
KPH
rain 1hr
cm
rain 24hr
cm
rain mn
cm
humidity
%
barometer
mb
20260906090111 29 84 1.6 9.7 0.00 0.00 0.00 44 1016.8
20260906084556 29 74 1.6 16.1 0.00 0.00 0.00 47 1016.8
20260906083050 28 35 1.6 17.7 0.00 0.00 0.00 47 1016.7
20260906081552 28 67 4.8 14.5 0.00 0.00 0.00 47 1016.7
20260906080048 27 72 3.2 16.1 0.00 0.00 0.00 50 1016.7
20260906074546 27 68 3.2 17.7 0.00 0.00 0.00 49 1016.7
20260906073050 27 74 0.0 11.3 0.00 0.00 0.00 54 1016.5
20260906071537 27 63 0.0 11.3 0.00 0.00 0.00 55 1016.4
20260906070039 26 82 3.2 14.5 0.00 0.00 0.00 54 1016.4
20260906064532 26 74 1.6 9.7 0.00 0.00 0.00 56 1016.4
20260906063031 26 320 1.6 12.9 0.00 0.00 0.00 56 1016.3
20260906061529 26 82 0.0 9.7 0.00 0.00 0.00 56 1016.1
20260906060025 25 73 0.0 3.2 0.00 0.00 0.00 59 1015.9
20260906054524 24 74 0.0 1.6 0.00 0.00 0.00 62 1015.7
20260906053026 23 73 0.0 6.4 0.00 0.00 0.00 62 1015.4
20260906051521 23 92 0.0 4.8 0.00 0.00 0.00 63 1015.3
20260906050017 23 87 0.0 4.8 0.00 0.00 0.00 64 1015.1
20260906044516 23 81 0.0 6.4 0.00 0.00 0.00 64 1015.0
20260906043021 23 68 0.0 1.6 0.00 0.00 0.00 64 1015.0
20260906041514 23 86 0.0 1.6 0.00 0.00 0.00 64 1014.9
20260906040013 23 67 0.0 3.2 0.00 0.00 0.00 65 1014.9
20260906034516 23 85 0.0 1.6 0.00 0.00 0.00 65 1014.8
20260906033011 23 85 0.0 1.6 0.00 0.00 0.00 65 1014.7
20260906031511 23 75 0.0 0.0 0.00 0.00 0.00 65 1014.7
20260906030009 23 77 0.0 0.0 0.00 0.00 0.00 65 1014.6
20260906024509 23 77 0.0 0.0 0.00 0.00 0.00 64 1014.6
20260906023008 23 74 0.0 1.6 0.00 0.00 0.00 65 1014.6
20260906021507 23 86 0.0 0.0 0.00 0.00 0.00 66 1014.5
20260906020004 23 86 0.0 0.0 0.00 0.00 0.00 65 1014.4
20260906014505 23 86 0.0 0.0 0.00 0.00 0.00 65 1014.4
20260906013004 23 86 0.0 0.0 0.00 0.00 0.00 65 1014.2
20260906011502 23 86 0.0 0.0 0.00 0.00 0.00 65 1014.1
20260906010002 23 86 0.0 0.0 0.00 0.00 0.00 67 1014.0
20260906004501 23 86 0.0 0.0 0.00 0.00 0.00 68 1014.1
20260906003100 23 86 0.0 0.0 0.00 0.00 0.00 68 1014.1
20260906001559 23 86 0.0 0.0 0.00 0.00 0.00 68 1014.1
20260906000106 24 86 0.0 0.0 0.00 0.00 0.00 68 1014.1
20260905234601 24 86 0.0 0.0 0.00 0.00 0.00 68 1014.0
20260905233056 24 86 0.0 0.0 0.00 0.00 0.00 69 1013.9
20260905231554 25 86 0.0 0.0 0.00 0.00 0.00 68 1013.9
20260905230050 25 78 0.0 0.0 0.00 0.00 0.00 72 1013.8
20260905224602 25 78 0.0 0.0 0.00 0.00 0.00 72 1013.8
20260905223049 25 78 0.0 0.0 0.00 0.00 0.00 73 1013.7
20260905221546 25 81 0.0 1.6 0.00 0.00 0.00 75 1013.7
20260905220044 25 76 0.0 0.0 0.00 0.00 0.00 73 1013.6
20260905214545 25 73 0.0 1.6 0.00 0.00 0.00 68 1013.4
20260905213042 25 72 0.0 0.0 0.00 0.00 0.00 64 1013.2
20260905211542 25 80 0.0 3.2 0.00 0.00 0.00 61 1013.2
20260905210039 26 80 0.0 0.0 0.00 0.00 0.00 59 1013.0
20260905204538 26 61 0.0 0.0 0.00 0.00 0.00 59 1012.8
20260905203038 25 52 0.0 0.0 0.00 0.00 0.00 60 1012.8
20260905201538 26 52 0.0 0.0 0.00 0.00 0.00 60 1012.7
20260905200045 26 52 0.0 0.0 0.00 0.00 0.00 60 1012.5
20260905194534 26 51 0.0 0.0 0.00 0.00 0.00 59 1012.4
20260905193032 26 46 0.0 0.0 0.00 0.00 0.00 58 1012.2
20260905191536 26 42 0.0 0.0 0.00 0.00 0.00 58 1011.9
20260905190044 27 33 0.0 0.0 0.00 0.00 0.00 57 1011.8
20260905184527 27 33 0.0 0.0 0.00 0.00 0.00 57 1011.5
20260905183025 27 76 0.0 0.0 0.00 0.00 0.00 58 1011.3
20260905181526 28 76 0.0 0.0 0.00 0.00 0.00 56 1011.1
20260905180024 28 76 0.0 0.0 0.00 0.00 0.00 55 1011.0
20260905174524 29 76 0.0 0.0 0.00 0.00 0.00 53 1010.7
20260905173024 30 76 0.0 0.0 0.00 0.00 0.00 52 1010.5
20260905171523 30 74 0.0 0.0 0.00 0.00 0.00 50 1010.4
20260905170023 31 90 0.0 1.6 0.00 0.00 0.00 49 1010.2
20260905164529 31 69 0.0 4.8 0.00 0.00 0.00 47 1010.1
20260905163022 31 93 0.0 1.6 0.00 0.00 0.00 46 1010.0
20260905161521 31 85 0.0 1.6 0.00 0.00 0.00 45 1009.9
20260905160021 32 104 0.0 6.4 0.00 0.00 0.00 45 1009.9
20260905154521 32 70 0.0 3.2 0.00 0.00 0.00 43 1009.8
20260905153024 32 88 0.0 0.0 0.00 0.00 0.00 44 1009.8
20260905151520 32 86 0.0 1.6 0.00 0.00 0.00 43 1009.7
20260905150021 32 60 0.0 3.2 0.00 0.00 0.00 43 1009.7
20260905144520 32 86 0.0 4.8 0.00 0.00 0.00 42 1009.6
20260905143022 33 97 0.0 1.6 0.00 0.00 0.00 43 1009.6
20260905141521 32 95 0.0 4.8 0.00 0.00 0.00 44 1009.8
20260905140015 33 67 0.0 4.8 0.00 0.00 0.00 43 1009.7
20260905134517 32 90 0.0 1.6 0.00 0.00 0.00 43 1009.8
20260905133020 32 88 0.0 3.2 0.00 0.00 0.00 43 1009.9
20260905131524 32 13 0.0 0.0 0.00 0.00 0.00 43 1010.1
20260905130017 32 74 0.0 1.6 0.00 0.00 0.00 48 1010.2
20260905124509 31 72 0.0 4.8 0.00 0.00 0.00 44 1010.3
20260905123008 32 219 0.0 1.6 0.00 0.00 0.00 43 1010.4
20260905121506 31 78 0.0 3.2 0.00 0.00 0.00 45 1010.6
20260905120006 32 204 0.0 0.0 0.00 0.00 0.00 47 1010.9
20260905114505 31 101 0.0 1.6 0.00 0.00 0.00 47 1010.8
20260905113010 31 92 0.0 1.6 0.00 0.00 0.00 47 1010.8
20260905111502 31 73 0.0 1.6 0.00 0.00 0.00 48 1010.9
20260905110001 31 80 0.0 0.0 0.00 0.00 0.00 45 1010.9
20260905104559 31 79 0.0 1.6 0.00 0.00 0.00 48 1011.0
20260905103058 30 85 0.0 3.2 0.00 0.00 0.00 49 1011.0
20260905101557 30 64 0.0 0.0 0.00 0.00 0.00 52 1011.0
20260905100053 29 66 0.0 1.6 0.00 0.00 0.00 52 1011.2
20260905094553 28 75 0.0 0.0 0.00 0.00 0.00 56 1011.1
20260905093053 28 73 0.0 0.0 0.00 0.00 0.00 57 1011.3
20260905091553 28 75 0.0 0.0 0.00 0.00 0.00 60 1011.3